SJ-23 AKM, 55180

Orbit data source: Space-Track

SJ-23 AKM, 55180 is space debris in GEO originally from a launch on Sun, 08 Jan 2023 UTC launched from the Wenchang Satellite Launch Center (WSC). Debris objects in space refer to the collection of defunct objects orbiting the Earth. Examples of debris include non-operational satellites, rocket bodies, and fragments generated from explosions, collisions, or faulty payload assembly.

Not visible in the next 10 days
Identifier
55180, 2023-002C
Orbit
GEO
Country
Flag of CNCN / PRC
Related business
Manufacturer
SAST?
Mission
Spacecraft
Bus & Motor
SJ21, Unknown motor
Mass
~200 kg wet, ~200 kg dry
Launch date (UTC)
2023-01-08 (3 years ago)
Launch vehicle
Unknown
Launch site
Wenchang Satellite Launch Center (WSC)
Object type
Payload
Rocket body
Debris
Shape & HBR
Box, 0.5 m
Radar Cross Section
1.500 m², Large (>1 m²)

Expand to show TLE details & history
Last TLE update: 1 day ago

TLE from 1 day ago
0 SJ-23 AKM
1 55180U 23002C   26172.39035568 -.00000139  00000-0  00000+0 0  9996
2 55180   3.7594  78.4547 0001893 278.3361  54.9150  0.99362416 12440
Epoch: 2026-06-21T09:22Z
TLE epoch observation values (Epoch: 2026-06-21T09:22:06.730Z)
Latitude
-1.67775°
Longitude
1.66705°
Altitude
36,038.611 km
Speed
3.066 km/s
True Right ascension
03h 27m 08s
True Declination
-1° 40' 34"
Sunlit
Object was in daylight at epoch
Visualization orbit readout
Latitude
Unknown
Longitude
Unknown
Altitude
Unknown
Speed
Unknown
Apparent Right ascension
Unknown
Apparent Declination
Unknown
Sunlit
N/A
Visualization observer readout
Local Sidereal Time
21:48:29
Azimuth
Unknown
Elevation
Unknown
Doppler factor
Unknown
Orbital elements
Apogee altitude
36,052.555 km
Perigee altitude
36,036.493 km
Semi-major axis
42,422.661 km
Eccentricity
0.00019
Inclination
3.7594°
RAAN
78.4547°
Arg. of periapsis
278.3361°
True anomaly
54.93275°
Mean anomaly
54.915°
Eccentric anomaly
54.92388°
Mean motion
0.2484 °/min
Orbital period
1,449.29 mins
BSTAR
0
Loading maneuver chart data...
Computing Atmospheric mass density...
Loading historical data...
Loading historical data...
Loading historical data...
Loading historical data...
Loading historical data...
Loading historical data...
Loading historical data...
Other satellites on launch #2 in the year 2023 (2023-01-08 UTC)

Documentation

Showing up to 5 results
|